Location: Bonningues
(50.7927°N, 2.0150°E)
Time: 16:24:57
(UTC+00:00)

EO 1 Del DPAF - Pass Details

Date: 08 August 2020
Orbit: 514 x 515 km, 98.0° (Epoch: 18 September)

Event Time Altitude Azimuth Distance (km) Brightness Sun altitude
Rises 23:34:09 0° 9° (N) 2,645 8.1 -23.2°
Reaches altitude 10° 23:36:19 10° 2° (N) 1,753 7.0 -23.3°
Maximum altitude 23:39:54 43° 291° (WNW) 738 4.1 -23.3°
Enters shadow 23:40:06 42° 281° (W) 743 4.0 -23.3°
